Wind from 111 at 1 knots

Air temperature 3.3° C
Dewpoint -3.3° C

Last reported at 2014-Apr-24 00:46 UTC.
Time now 2014-Apr-24 01:57 UTC

Location: N 59°50' E 010°17'.
View on Google Maps.

See reports from other nearby stations

Tides Stations Pressure Air Temp Water Temp Dewpoint Dewpoint depression Visibility Wind Speed Wind Dir Waves Ship positions

  
sailing weather and tide predictions

DW0333 Tranby-Lier NO weather

date/time (UTC)wind fromknots sea level pressurealtimeterstation pressurevisibilityair tempwater tempwave heightnotes
2014-Apr-24 00:46 111 1 3.3
2014-Apr-24 00:31 077 2 3.9
2014-Apr-24 00:16 110 3 3.9
2014-Apr-24 00:02 073 3 4.4
2014-Apr-23 23:48 098 3 4.4
2014-Apr-23 23:29 081 2 5.0
2014-Apr-23 23:15 114 2 5.6
2014-Apr-23 23:00 075 1 5.0
2014-Apr-23 22:44 053 1 5.0
2014-Apr-23 22:28 069 1 5.6
2014-Apr-23 22:14 054 1 6.1
2014-Apr-23 21:58 079 2 6.7
2014-Apr-23 21:43 065 1 6.7
2014-Apr-23 21:28 064 1 7.2
2014-Apr-23 21:12 104 1 7.2
2014-Apr-23 20:57 068 1 6.7
2014-Apr-23 20:43 054 1 6.7
2014-Apr-23 20:27 040 0 6.7
2014-Apr-23 20:13 034 1 7.2
2014-Apr-23 19:56 063 0 7.8
2014-Apr-23 19:41 072 1 8.3
2014-Apr-23 19:26 086 1 8.3
2014-Apr-23 19:12 067 1 8.3
2014-Apr-23 18:57 063 0 8.3
2014-Apr-23 18:41 044 0 9.4
2014-Apr-23 18:26 039 0 10.0
2014-Apr-23 18:09 045 1 10.6
2014-Apr-23 17:54 059 1 11.1
2014-Apr-23 17:40 105 2 11.7
2014-Apr-23 17:25 027 1 12.2
2014-Apr-23 17:09 020 1 12.8
2014-Apr-23 16:53 062 1 13.3
2014-Apr-23 16:38 171 1 13.3
2014-Apr-23 16:23 033 2 13.3
2014-Apr-23 16:08 078 3 13.9
2014-Apr-23 15:53 045 3 13.9
2014-Apr-23 15:38 042 2 14.4
2014-Apr-23 15:22 031 1 15.0
2014-Apr-23 15:08 043 3 13.9
2014-Apr-23 14:52 071 2 14.4
2014-Apr-23 14:38 046 3 14.4
2014-Apr-23 14:23 020 4 14.4
2014-Apr-23 14:07 043 3 14.4
2014-Apr-23 13:53 165 3 13.9
2014-Apr-23 13:38 104 3 14.4
2014-Apr-23 13:22 104 3 14.4
2014-Apr-23 13:06 069 2 14.4
2014-Apr-23 12:51 053 3 13.3
2014-Apr-23 12:36 023 3 13.3
2014-Apr-23 12:19 038 4 13.9
2014-Apr-23 12:04 052 3 13.3
2014-Apr-23 11:49 100 4 13.3
2014-Apr-23 11:34 075 3 13.3
2014-Apr-23 11:19 048 3 13.3
2014-Apr-23 11:03 285 2 12.8
2014-Apr-23 10:49 061 4 12.2
2014-Apr-23 10:33 032 3 12.2
2014-Apr-23 10:18 073 2 12.2
2014-Apr-23 10:02 087 3 11.7
2014-Apr-23 09:48 151 3 10.6
2014-Apr-23 09:33 069 2 11.1
2014-Apr-23 09:17 030 3 10.6
2014-Apr-23 09:02 119 2 10.6
2014-Apr-23 08:46 058 4 10.0
2014-Apr-23 08:32 063 3 10.0
2014-Apr-23 08:17 096 3 10.0
2014-Apr-23 08:01 146 4 9.4
2014-Apr-23 07:47 036 2 9.4
2014-Apr-23 07:31 120 2 8.9
2014-Apr-23 07:16 094 3 8.9
2014-Apr-23 06:59 038 3 8.3
2014-Apr-23 06:44 276 2 7.2
2014-Apr-23 06:29 065 1 7.2
2014-Apr-23 06:14 091 2 6.7
2014-Apr-23 05:58 035 2 6.7
2014-Apr-23 05:43 122 2 6.7
2014-Apr-23 05:29 067 2 6.7
2014-Apr-23 05:13 086 1 6.7
2014-Apr-23 04:57 149 1 6.7
2014-Apr-23 04:42 113 2 6.7
2014-Apr-23 04:27 120 2 6.7
2014-Apr-23 04:12 075 3 6.7
2014-Apr-23 03:57 058 1 7.2
2014-Apr-23 03:42 045 1 7.2
2014-Apr-23 03:27 058 1 7.8
2014-Apr-23 03:11 143 2 7.8
2014-Apr-23 02:56 012 1 7.8
2014-Apr-23 02:41 296 0 7.8
2014-Apr-23 02:26 315 1 8.3
2014-Apr-23 02:10 012 1 8.3
2014-Apr-23 01:55 109 2 8.3
2014-Apr-23 01:40 031 2 8.3
2014-Apr-23 01:24 025 1 8.3
2014-Apr-23 01:09 136 1 8.3
2014-Apr-23 00:53 067 1 8.9
2014-Apr-23 00:39 140 3 8.9
2014-Apr-23 00:24 115 2 9.4
2014-Apr-23 00:08 008 2 9.4
2014-Apr-22 23:53 083 1 10.0
2014-Apr-22 23:38 046 1 10.0
2014-Apr-22 23:22 356 1 10.0
2014-Apr-22 23:07 022 1 10.6
2014-Apr-22 22:52 040 1 10.6
2014-Apr-22 22:38 054 2 10.6
2014-Apr-22 22:22 042 1 11.1
2014-Apr-22 22:06 049 1 11.1
2014-Apr-22 21:51 089 2 11.1
2014-Apr-22 21:36 117 1 11.1
2014-Apr-22 21:21 269 1 11.7
2014-Apr-22 21:06 039 2 11.7
2014-Apr-22 20:49 032 1 11.7
2014-Apr-22 20:35 346 2 12.2
2014-Apr-22 20:04 057 1 12.2
2014-Apr-22 19:49 156 2 12.2
2014-Apr-22 19:33 298 1 12.2
2014-Apr-22 19:18 279 1 12.2
2014-Apr-22 19:03 338 1 12.8
2014-Apr-22 18:49 351 1 12.8
2014-Apr-22 18:33 319 1 13.3
2014-Apr-22 18:18 303 0 13.9
2014-Apr-22 18:03 308 0 14.4
2014-Apr-22 17:48 314 0 14.4
2014-Apr-22 17:33 339 0 15.0
2014-Apr-22 17:03 359 2 16.7
2014-Apr-22 16:47 002 1 17.2
2014-Apr-22 16:32 092 2 17.2
2014-Apr-22 16:17 050 2 17.2
2014-Apr-22 16:01 039 1 17.8
2014-Apr-22 15:46 035 1 18.3
2014-Apr-22 15:32 084 2 17.8
2014-Apr-22 15:15 073 1 18.3
2014-Apr-22 15:00 027 2 18.3
2014-Apr-22 14:45 065 2 18.3
2014-Apr-22 14:30 071 3 17.8
2014-Apr-22 14:15 046 3 18.3
2014-Apr-22 13:59 094 3 17.8
2014-Apr-22 13:43 330 4 18.3
2014-Apr-22 13:29 027 4 17.8
2014-Apr-22 13:14 133 3 18.3
2014-Apr-22 12:58 046 3 18.3
2014-Apr-22 12:42 028 2 18.3
2014-Apr-22 12:27 032 2 18.3
2014-Apr-22 12:13 040 3 17.8
2014-Apr-22 11:57 031 2 17.8
2014-Apr-22 11:43 098 2 17.2
2014-Apr-22 11:28 116 2 17.2
2014-Apr-22 11:13 024 2 17.2
2014-Apr-22 10:57 233 2 16.7
2014-Apr-22 10:43 029 1 16.1
2014-Apr-22 10:26 307 1 16.1
2014-Apr-22 10:11 317 1 15.6
2014-Apr-22 09:56 312 2 15.0
2014-Apr-22 09:39 324 2 14.4
2014-Apr-22 09:25 338 2 13.9
2014-Apr-22 09:10 283 2 13.9
2014-Apr-22 08:54 322 2 13.3
2014-Apr-22 08:38 337 2 12.8
2014-Apr-22 08:24 272 1 12.8
2014-Apr-22 08:09 283 1 12.2
2014-Apr-22 07:53 311 0 12.2
2014-Apr-22 07:37 311 1 11.1
2014-Apr-22 07:23 030 1 10.6
2014-Apr-22 07:08 356 1 10.0
2014-Apr-22 06:52 308 1 9.4
2014-Apr-22 06:37 319 1 9.4
2014-Apr-22 06:21 337 2 8.9
2014-Apr-22 06:07 304 1 8.9
2014-Apr-22 05:52 025 2 8.3
2014-Apr-22 05:37 304 1 7.8
2014-Apr-22 05:21 308 1 7.8
2014-Apr-22 05:05 337 1 7.8
2014-Apr-22 04:51 345 1 8.3
2014-Apr-22 04:34 100 0 7.8
2014-Apr-22 04:19 035 2 7.2
2014-Apr-22 04:05 306 1 7.2
2014-Apr-22 03:48 044 0 7.2
2014-Apr-22 03:33 345 1 7.2
2014-Apr-22 03:18 011 1 7.8
2014-Apr-22 03:04 353 1 7.8
2014-Apr-22 02:47 288 1 7.8
2014-Apr-22 02:33 327 0 8.3
2014-Apr-22 02:18 356 1 8.3
2014-Apr-22 02:02 306 1 8.9
2014-Apr-22 01:47 297 2 8.9
2014-Apr-22 01:33 319 2 8.9
2014-Apr-22 01:16 315 3 8.9
2014-Apr-22 01:01 296 1 8.9